Weather History for KCHO - January, 2011

Change the Weather History Date:

Saturday, January 1, 2011

  Actual Average Record
Temperature  
Mean Temperature 48 °F 35 °F  
Max Temperature 58 °F 44 °F 72 °F (1993)
Min Temperature 38 °F 26 °F 4 °F (1977)
Degree Days  
Heating Degree Days 17 30  
Month to date heating degree days 17 30  
Since 1 July heating degree days 1709 1766  
Cooling Degree Days 0 0  
Month to date cooling degree days 0 0  
Year to date cooling degree days 0 0  
Moisture  
Dew Point 47 °F    
Average Humidity 80    
Maximum Humidity 89    
Minimum Humidity 70    
Precipitation  
Precipitation T in 0.09 in 1.51 in (2003)
Month to date precipitation T 0.09  
Year to date precipitation T 0.09  
Sea Level Pressure  
Sea Level Pressure 30.05 in    
Wind  
Wind Speed 9 mph (South)    
Max Wind Speed 17 mph    
Max Gust Speed 23 mph    
Visibility 8 miles    
Events Rain    
T = Trace of Precipitation, MM = Missing Value Source: NWS Daily Summary

Daily Weather History Graph

Daily Weather History Graph

Search for Another Location

Airport or City:

Trip Planner

Search our weather history database for the weather conditions in past years. The results will help you decide how hot, cold, wet, or windy it might be!

Date:

Astronomy

Jan. 01, 2011 Rise Set
Actual Time 7:30 AM EST 5:04 PM EST
Civil Twilight 7:00 AM EST 5:34 PM EST
Nautical Twilight 6:27 AM EST 6:07 PM EST
Astronomical Twilight 5:55 AM EST 6:39 PM EST
Moon 5:01 AM EST (1/1) 2:40 PM EST (1/1)
Length of Visible Light 10h 33m
Length of Day
9h 34m
Waning Crescent, 8% of the Moon is Illuminated
Jan 1
Waning Crescent
Jan 4
New
Jan 12
First Quarter
Jan 19
Full
Jan 26
Last Quarter

Hourly Weather History & Observations

Time (EST) Temp. Windchill Dew Point Humidity Pressure Visibility Wind Dir Wind Speed Gust Speed Precip Events Conditions
12:53 AM 39.9 °F 37.8 °F 33.1 °F 77% 30.14 in 10.0 mi SW 3.5 mph - N/A   Clear
1:53 AM 44.1 °F 39.5 °F 36.0 °F 73% 30.12 in 10.0 mi SSW 8.1 mph - N/A   Clear
2:53 AM 42.1 °F 40.2 °F 36.0 °F 79% 30.12 in 10.0 mi SSW 3.5 mph - N/A   Clear
3:53 AM 42.1 °F 39.2 °F 37.0 °F 82% 30.09 in 9.0 mi SSW 4.6 mph - N/A   Clear
4:53 AM 39.9 °F - 36.0 °F 86% 30.09 in 8.0 mi Calm Calm - N/A   Clear
5:53 AM 43.0 °F 41.3 °F 39.0 °F 86% 30.09 in 8.0 mi Variable 3.5 mph - N/A   Clear
6:53 AM 44.1 °F 39.0 °F 39.9 °F 85% 30.10 in 8.0 mi SSW 9.2 mph - N/A   Scattered Clouds
7:53 AM 45.0 °F 38.9 °F 41.0 °F 86% 30.09 in 6.0 mi South 12.7 mph - N/A   Scattered Clouds
8:53 AM 46.9 °F - 43.0 °F 86% 30.12 in 6.0 mi South 11.5 mph - N/A   Mostly Cloudy
9:53 AM 50.0 °F - 45.0 °F 83% 30.12 in 8.0 mi South 9.2 mph - N/A   Mostly Cloudy
11:12 AM 53.6 °F - 46.4 °F 77% 30.09 in 9.0 mi South 11.5 mph - N/A   Mostly Cloudy
11:22 AM 53.6 °F - 46.4 °F 77% 30.08 in 9.0 mi SSE 12.7 mph - N/A   Scattered Clouds
11:53 AM 54.0 °F - 48.0 °F 80% 30.07 in 9.0 mi South 8.1 mph - N/A   Clear
12:53 PM 55.9 °F - 50.0 °F 80% 30.05 in 9.0 mi South 10.4 mph - N/A   Clear
1:53 PM 57.0 °F - 51.1 °F 81% 30.03 in 9.0 mi South 11.5 mph - N/A   Clear
2:53 PM 57.0 °F - 50.0 °F 77% 30.02 in 9.0 mi South 11.5 mph - N/A   Scattered Clouds
3:39 PM 57.2 °F - 50.0 °F 77% 30.02 in 8.0 mi SSW 10.4 mph - N/A   Mostly Cloudy
3:53 PM 55.9 °F - 51.1 °F 84% 30.01 in 6.0 mi SSW 9.2 mph 19.6 mph 0.00 in Rain Light Rain
4:05 PM 55.4 °F - 51.8 °F 88% 30.01 in 7.0 mi South 9.2 mph - 0.00 in Rain Light Rain
4:53 PM 55.0 °F - 51.1 °F 86% 30.00 in 7.0 mi South 10.4 mph - 0.00 in   Partly Cloudy
5:16 PM 55.4 °F - 51.8 °F 88% 30.01 in 8.0 mi South 12.7 mph - N/A   Mostly Cloudy
5:53 PM 55.9 °F - 51.1 °F 84% 30.02 in 9.0 mi South 16.1 mph 21.9 mph N/A   Overcast
6:05 PM 55.4 °F - 51.8 °F 88% 30.02 in 8.0 mi South 15.0 mph - N/A   Mostly Cloudy
6:36 PM 55.4 °F - 51.8 °F 88% 30.02 in 9.0 mi South 12.7 mph 21.9 mph N/A   Mostly Cloudy
6:53 PM 55.9 °F - 51.1 °F 84% 30.02 in 9.0 mi SSW 15.0 mph 21.9 mph N/A   Overcast
7:53 PM 55.9 °F - 52.0 °F 87% 30.01 in 9.0 mi South 12.7 mph - N/A   Overcast
8:35 PM 55.4 °F - 51.8 °F 88% 30.01 in 9.0 mi South 11.5 mph - N/A   Overcast
8:53 PM 55.9 °F - 52.0 °F 87% 30.01 in 10.0 mi South 11.5 mph - N/A   Overcast
9:53 PM 57.0 °F - 53.1 °F 87% 29.99 in 9.0 mi South 10.4 mph - N/A   Overcast
10:53 PM 57.0 °F - 53.1 °F 87% 29.99 in 9.0 mi South 9.2 mph - N/A   Overcast
11:53 PM 57.9 °F - 53.1 °F 84% 29.97 in 10.0 mi South 11.5 mph - N/A   Overcast